Regional Weather Roundup
Issued by NWS

Home | Current Version | Previous Version | Text Only | Print | Product List | Glossary On
Versions: 1 2 3 4 5 6 7 8 9 10 11 12 13 14 15 16 17 18 19 20 21 22 23 24 25 26 27 28 29 30 31 32 33 34 35 36 37 38 39 40 41 42 43 44 45 46 47 48 49 50
000
ASUS43 KDTX 200701
RWRMI
MICHIGAN HOURLY REGIONAL WEATHER ROUNDUP
NATIONAL WEATHER SERVICE DETROIT/PONTIAC MI
300 AM EDT WED AUG 20 2014

NOTE: "FAIR" INDICATES FEW OR NO CLOUDS BELOW 12,000 FEET WITH NO
SIGNIFICANT WEATHER AND/OR OBSTRUCTION TO VISIBILITY.

MIZ047>049-052>055-059>063-066>070-074>076-081>083-200800-
SOUTHEAST LOWER MICHIGAN

CITY           SKY/WX    TMP DP  RH WIND       PRES   REMARKS
ADRIAN         CLOUDY    65  63  93 W3        29.80S
ALMA           FOG       68  67  96 SW3       29.76S VSB 1/4
ANN ARBOR      CLOUDY    63  61  93 W3        29.79S
BAD AXE        CLOUDY    65  65 100 SE5       29.78S
CARO           MOCLDY    65  64  97 CALM      29.75F
DETROIT CITY   CLOUDY    71  66  84 S5        29.79F
DETROIT        CLOUDY    67  66  97 CALM      29.78F
FLINT          CLOUDY    67  63  87 S5        29.77F
GROSSE ILE     CLOUDY    70  66  88 S5        29.77F
HILLSDALE      MOCLDY    66  66 100 S3        29.79F FOG
HOWELL         MOCLDY    62  62  99 SE3       29.79R FOG

CITY           SKY/WX    TMP DP  RH WIND       PRES   REMARKS
JACKSON        MOCLDY    67  64  90 CALM      29.78S
LAMBERTVILLE   CLOUDY    66  63  88 CALM      29.78F FOG
LANSING        MOCLDY    66  64  93 S5        29.77S
LAPEER         FAIR      65  63  94 S3        29.78S
MASON          PTCLDY    64  63  96 CALM      29.77F FOG
MONROE         CLOUDY    66  64  94 CALM      29.76F FOG
MT. CLEMENS    MOCLDY    68  67  97 S6        29.78F
PONTIAC        CLOUDY    66  63  90 CALM      29.79F
PORT HOPE        N/A     67  64  90 VRB3      29.76S
PORT HURON     CLOUDY    66  66 100 S5        29.79F
TRI CITIES     CLOUDY    68  66  93 S6        29.76F
TROY           CLOUDY    69  65  90 SW3       29.80F
SAGINAW HB     MOCLDY    64  64 100 SW5       29.75S
$$
MIZ043>046-050>051-056>058-064>065-071>073-077>080-200800-
SOUTHWEST LOWER MICHIGAN

CITY           SKY/WX    TMP DP  RH WIND       PRES   REMARKS
BATTLE CREEK   CLOUDY    69  66  90 CALM      29.78S
BENTON HARBOR  CLEAR     70  66  87 W7        29.76S
BIG RAPIDS     CLOUDY    67  67 100 N6        29.75F FOG
COLDWATER      MOCLDY    67  66  96 CALM      29.78S FOG
FREMONT        FOG       65  64  99 CALM      29.75S VSB<1/4
HOLLAND        CLEAR     67  65  93 SW5       29.76S FOG
GRAND RAPIDS   FOG       66  66 100 CALM      29.76S VSB 1/4
IONIA          FAIR      65  64  97 CALM      29.76S
KALAMAZOO      MOCLDY    69  66  90 SW3       29.77S
LUDINGTON      CLOUDY    64  63  95 W3        29.76S FOG
MARSHALL       MOCLDY    66  65  96 CALM      29.77S
MOUNT PLEASANT CLOUDY    68  67  95 SW3       29.74F FOG
MUSKEGON       MOCLDY    65  63  93 CALM      29.76R FOG
SOUTH HAVEN    CLEAR     70  69  96 CALM      29.77R
$$
MIZ016>042-200800-
NORTHERN LOWER MICHIGAN

CITY           SKY/WX    TMP DP  RH WIND       PRES   REMARKS
ALPENA         MOCLDY    65  65 100 SW5       29.74S
BEAVER ISLAND  FOG       63  63  99 E3        29.73S VSB 3/4
BELLAIRE       CLOUDY    65  64  94 CALM      29.73S FOG
CADILLAC       CLOUDY    64  64 100 SW7       29.76S
CHARLEVOIX     CLOUDY    65  65 100 SE3       29.76S
FRANKFORT      CLOUDY    64  61  91 CALM      29.75S FOG
GAYLORD        MOCLDY    64  63  96 CALM      29.76S FOG
GRAYLING       FOG       62  62 100 CALM      29.77R VSB<1/4
HARBOR SPRINGS CLOUDY    64  63  96 E3        29.73S FOG
HOUGHTON LAKE  CLOUDY    64  64 100 S3        29.76F
MANISTEE       PTCLDY    63  61  94 W3        29.76S
OSCODA         RAIN      67  67  99 S5        29.74F
PELLSTON       CLOUDY    61  60  97 CALM      29.74S FOG
ROGERS CITY    MOCLDY    63  63 100 MISG      29.74F FOG
TRAVERSE CITY  CLOUDY    67  63  87 CALM      29.72S
$$
MIZ007>008-015-200800-
EASTERN UPPER MICHIGAN

CITY           SKY/WX    TMP DP  RH WIND       PRES   REMARKS
KINROSS        CLOUDY    61  61 100 E7        29.74F
MACKINAC ISLAN FOG       59  59 100 CALM      29.74R VSB 1/2
NEWBERRY       FOG       60  60 100 CALM      29.74S VSB 3/4
S. S. MARIE    CLOUDY    61  58  90 E5        29.73F
$$
MIZ004>006-011>014-085-200800-
CENTRAL UPPER MICHIGAN

CITY           SKY/WX    TMP DP  RH WIND       PRES   REMARKS
MANISTIQUE     FOG       61  61 100 CALM      29.73S VSB 1/2
ESCANABA       CLOUDY    61  57  88 N3        29.74S
MENOMINEE      CLOUDY    63  59  88 N3        29.74S
SAWYER-GWINN   CLOUDY    58  57  97 N5        29.76S
$$
MIZ001>003-009>011-084-200800-
WESTERN UPPER MICHIGAN

CITY           SKY/WX    TMP DP  RH WIND       PRES   REMARKS
IRON MOUNTAIN  CLOUDY    61  57  87 NW9       29.76S
HOUGHTON       LGT RAIN  55  53  93 NW6       29.78S VSB 1/4
COPPER HARBOR    N/A     56  55  97 N6        29.77S
IRONWOOD       CLOUDY    55  55 100 N3        29.80S VSB 1/4
$$

ABBREVIATIONS USED IN REMARKS
   TC - TEMPERATURE IN CELSIUS
  WCI - WIND CHILL INDEX
   HX - HEAT INDEX
  VSB - VISIBILITY



USA.gov is the U.S. government's official web portal to all federal, state and local government web resources and services.